Home   Weather   Changsha   Past weeks

Flag for China Past Weather in Changsha, Hunan, China — Yesterday and Last 2 Weeks

59 °F

Drizzle. Fog.

Feels Like: 60 °F
Forecast: 60 / 67 °F
Wind: 3 mph from Northeast

Location: Changsha

Current Time: Oct 25, 2016 at 11:43:29 PM

Latest Report: Oct 25, 2016 at 11:00 PM

Visibility: 3 mi

Pressure: 30.01 "Hg

Humidity: 88%

Dew Point: 55 °F

Location of ChangshaLocation

Past Weather in Changsha — Graph


Changsha Temperature Yesterday

Maximum temperature yesterday: 61 °F (at 12:00 AM)
Minimum temperature yesterday: 59 °F (at 3:00 AM)
Average temperature yesterday: 60 °F

High & Low Weather Summary for the Past Weeks

High82 °F (Oct 21, 3:00 PM)94% (Oct 13, 6:00 AM)30.18 "Hg (Oct 13, 6:00 AM)
Low57 °F (Oct 25, 3:00 AM)53% (Oct 11, 2:00 PM)29.68 "Hg (Oct 21, 4:00 PM)
Average68 °F82%29.98 "Hg
* Reported Oct 10 10:00 PM — Oct 25 10:00 PM, Changsha, Weather by CustomWeather, © 2016

Note: Actual official high and low records may vary slightly from our data, if they occured in-between our weather recording intervals... More about our weather records


Changsha Weather History for the Previous 24 Hours

Scroll right to see more
Time TempWeatherWind HumidityBarometerVisibility
10:00 PM
Tue, Oct 25
59 °FDrizzle. Overcast.3 mph88%29.98 "Hg4 mi
9:00 PM59 °FOvercast.3 mph94%29.95 "Hg4 mi
8:00 PM59 °FDrizzle. Fog.6 mph88%29.95 "Hg3 mi
7:00 PM59 °FDrizzle. Fog.3 mph88%29.95 "Hg2 mi
6:00 PM59 °FDrizzle. Fog.3 mph88%29.92 "Hg2 mi
5:00 PM59 °FDrizzle. Fog.1 mph88%29.92 "Hg2 mi
4:00 PM59 °FDrizzle. Fog.1 mph88%29.92 "Hg3 mi
3:00 PM59 °FLight rain. Fog.6 mph88%29.95 "Hg3 mi
2:00 PM59 °FDrizzle. Cloudy.6 mph88%29.95 "Hg4 mi
1:00 PM59 °FDrizzle. Cloudy.6 mph88%29.98 "Hg4 mi
12:00 PM59 °FDrizzle. Cloudy.6 mph88%30.01 "Hg5 mi
11:00 AM59 °FMostly cloudy.6 mph88%30.01 "Hg5 mi
10:00 AM59 °FMostly cloudy.6 mph88%30.04 "HgN/A
9:00 AM59 °FCloudy.6 mph88%30.01 "HgN/A
8:00 AM57 °FCloudy.8 mph94%30.01 "Hg4 mi
7:00 AM57 °FDrizzle. Cloudy.6 mph94%30.01 "Hg4 mi
6:00 AM57 °FFog.8 mph94%29.98 "Hg2 mi
5:00 AM57 °FFog.8 mph94%29.98 "Hg3 mi
4:00 AM57 °FFog.8 mph94%29.98 "Hg3 mi
3:00 AM57 °FFog.8 mph94%29.98 "Hg2 mi
2:00 AM59 °FFog.8 mph94%29.98 "Hg2 mi
1:00 AM59 °FDrizzle. Fog.10 mph94%29.98 "Hg1 mi
12:00 AM59 °FFog.8 mph94%29.98 "Hg1 mi
11:00 PM
Mon, Oct 24
61 °FFog.8 mph88%29.98 "Hg1 mi
Weather by CustomWeather, © 2016

See weather overviewHow to use our weather pages